Location: Appleton
(44.2618°N, 88.4157°W)
Time: 11:19:11
(UTC+00:00)

SR - All Passes

Search period start: 07 March 2021 00:00
Search period end: 17 March 2021 00:00
Orbit: 573 x 882 km, 66.7° (Epoch: 07 March)

Date Brightness Start Highest point End Pass type
(mag) Time Alt. Az. Time Alt. Az. Time Alt. Az.
07 Mar - 01:02:13 10° WSW 01:07:13 42° NW 01:12:38 10° NNE visible
07 Mar - 02:48:40 10° NW 02:50:58 12° NNW 02:53:17 10° N visible
07 Mar - 06:18:40 10° N 06:21:07 12° NNE 06:23:34 10° NE visible
07 Mar - 07:59:17 10° NNW 08:04:54 41° NE 08:10:24 10° ESE night (unlit)
07 Mar - 09:41:32 10° NW 09:47:02 40° WSW 09:52:21 10° S night (unlit)
07 Mar - 22:32:44 10° SE 22:35:56 17° ESE 22:39:18 10° ENE daylight
08 Mar - 00:12:03 10° SW 00:17:15 75° WNW 00:22:58 10° NNE visible
08 Mar - 01:56:43 10° WNW 02:00:25 18° NW 02:04:16 10° N visible
08 Mar - 07:09:48 10° NNW 07:14:43 26° NE 07:19:34 10° E visible
08 Mar - 08:51:28 10° NW 08:57:26 73° WSW 09:03:10 10° SSE night (unlit)
08 Mar - 10:36:42 10° W 10:38:29 11° W 10:40:15 10° WSW night (unlit)
08 Mar - 23:22:27 10° SSW 23:27:31 59° ESE 23:33:04 10° NE daylight
09 Mar - 01:05:30 10° W 01:10:03 27° NW 01:14:55 10° NNE visible
09 Mar - 06:20:29 10° N 06:24:20 17° NNE 06:28:09 10° ENE visible
09 Mar - 08:01:41 10° NNW 08:07:37 66° NE 08:13:23 10° SE night (unlit)
09 Mar - 09:44:44 10° WNW 09:49:14 23° WSW 09:53:36 10° SSW night (unlit)
09 Mar - 22:33:31 10° S 22:38:01 31° ESE 22:42:51 10° NE daylight
10 Mar - 00:14:50 10° WSW 00:19:54 45° NW 00:25:24 10° NNE visible
10 Mar - 02:01:05 10° NW 02:03:36 13° NNW 02:06:10 10° N visible
10 Mar - 05:31:30 10° N 05:33:45 12° NNE 05:36:01 10° NE visible
10 Mar - 07:12:03 10° NNW 07:17:36 39° NE 07:23:02 10° ESE visible
10 Mar - 08:54:14 10° NW 08:59:48 42° WSW 09:05:09 10° S night (unlit)
10 Mar - 21:45:40 10° SE 21:48:42 16° ESE 21:51:53 10° ENE daylight
10 Mar - 23:24:43 10° SW 23:29:58 80° WNW 23:35:42 10° NNE daylight
11 Mar - 01:09:15 10° W 01:13:04 19° NW 01:17:04 10° N visible
11 Mar - 06:22:34 10° NNW 06:27:24 25° NE 06:32:09 10° E visible
11 Mar - 08:04:12 10° NW 08:10:10 77° WSW 08:15:55 10° SSE night (unlit)
11 Mar - 09:49:01 10° WNW 09:51:16 12° W 09:53:28 10° WSW night (unlit)
11 Mar - 22:35:11 10° SSW 22:40:15 55° ESE 22:45:47 10° NE daylight
12 Mar - 00:18:04 10° WSW 00:22:43 29° NW 00:27:42 10° NNE visible
12 Mar - 05:33:16 10° N 05:36:59 17° NNE 05:40:41 10° ENE visible
12 Mar - 07:14:24 10° NNW 07:20:20 62° NE 07:26:04 10° SE visible
12 Mar - 08:57:22 10° NW 09:01:59 24° WSW 09:06:29 10° SSW night (unlit)
12 Mar - 21:46:20 10° SSE 21:50:46 29° ESE 21:55:31 10° NE daylight
12 Mar - 23:27:28 10° SW 23:32:35 48° NW 23:38:09 10° NNE daylight
13 Mar - 01:13:31 10° WNW 01:16:14 13° NNW 01:19:01 10° N visible
13 Mar - 04:44:20 10° N 04:46:23 12° NNE 04:48:26 10° NE visible
13 Mar - 06:24:48 10° NNW 06:30:18 37° NE 06:35:40 10° ESE visible
13 Mar - 08:06:56 10° NW 08:12:33 45° WSW 08:17:57 10° S night (unlit)
13 Mar - 20:58:38 10° SE 21:01:28 15° ESE 21:04:25 10° ENE daylight
13 Mar - 22:37:24 10° SSW 22:42:41 85° WNW 22:48:26 10° NNE daylight
14 Mar - 00:21:45 10° W 00:25:43 20° NW 00:29:52 10° N visible
14 Mar - 05:35:20 10° NNW 05:40:03 24° NE 05:44:43 10° E visible
14 Mar - 07:16:55 10° NNW 07:22:54 81° WSW 07:28:38 10° SSE visible
14 Mar - 09:01:26 10° WNW 09:04:02 13° W 09:06:36 10° SW night (unlit)
14 Mar - 21:47:55 10° S 21:53:00 52° ESE 21:58:30 10° NE daylight
14 Mar - 23:30:39 10° WSW 23:35:24 30° NW 23:40:28 10° NNE daylight
15 Mar - 04:46:03 10° N 04:49:38 16° NNE 04:53:12 10° ENE visible
15 Mar - 06:27:09 10° NNW 06:33:02 59° NE 06:38:44 10° SE visible
15 Mar - 08:10:01 10° NW 08:14:45 26° WSW 08:19:22 10° SSW night (unlit)
15 Mar - 20:59:09 10° SSE 21:03:31 27° ESE 21:08:11 10° NE daylight
15 Mar - 22:40:06 10° SW 22:45:17 50° NW 22:50:54 10° NNE daylight
16 Mar - 00:25:58 10° WNW 00:28:52 14° NNW 00:31:50 10° N visible
16 Mar - 03:57:12 10° N 03:59:02 11° NNE 04:00:50 10° NE visible
16 Mar - 05:37:33 10° NNW 05:42:59 35° NE 05:48:17 10° ESE visible
16 Mar - 07:19:37 10° NW 07:25:17 47° WSW 07:30:43 10° S visible
16 Mar - 20:11:38 10° SE 20:14:14 14° ESE 20:16:55 10° ENE daylight
16 Mar - 21:50:05 10° SSW 21:55:23 89° NW 22:01:10 10° NNE daylight
16 Mar - 23:34:17 10° W 23:38:22 21° NW 23:42:39 10° N daylight
